This is the latest recevied weather packets stored in our database for station/object K8FJG-13. If no packets are shown the sender has not sent any weather packets the latest 10 day(s).
| Time | Temp. | Humidity | Pressure | Rain* | Wind** | Luminosity | Snow |
|---|---|---|---|---|---|---|---|
| 1777989455 | 17.78° C | 67% | 961.9 hPa | - | - | - | - |
| 1777988852 | 17.22° C | 70% | 961.9 hPa | - | - | - | - |
| 1777988249 | 16.67° C | 72% | 961.9 hPa | - | - | - | - |
| 1777987646 | 16.11° C | 72% | 961.6 hPa | - | - | - | - |
| 1777987043 | 16.11° C | 72% | 961.9 hPa | - | - | - | - |
| 1777986439 | 16.11° C | 72% | 961.8 hPa | - | - | - | - |
| 1777985835 | 16.11° C | 72% | 961.9 hPa | - | - | - | - |
| 1777985232 | 16.11° C | 71% | 961.8 hPa | - | - | - | - |
| 1777984629 | 16.11° C | 71% | 961.6 hPa | - | - | - | - |
| 1777984026 | 16.11° C | 70% | 961.4 hPa | - | - | - | - |
| 1777983423 | 16.11° C | 70% | 961.1 hPa | - | - | - | - |
| 1777982820 | 16.67° C | 69% | 961 hPa | - | - | - | - |
| 1777982216 | 16.67° C | 69% | 961.2 hPa | - | - | - | - |
| 1777981613 | 17.22° C | 66% | 961.1 hPa | - | - | - | - |
| 1777981010 | 17.22° C | 66% | 960.9 hPa | - | - | - | - |
| 1777980407 | 17.22° C | 66% | 961 hPa | - | - | - | - |
| 1777979803 | 17.22° C | 65% | 960.8 hPa | - | - | - | - |
| 1777979200 | 17.22° C | 66% | 960.7 hPa | - | - | - | - |
| 1777978597 | 17.22° C | 65% | 960.6 hPa | - | - | - | - |
| 1777977994 | 17.78° C | 66% | 960.5 hPa | - | - | - | - |
| 1777977391 | 17.78° C | 65% | 960.4 hPa | - | - | - | - |
| 1777976788 | 17.78° C | 65% | 960.2 hPa | - | - | - | - |
| 1777976184 | 17.78° C | 65% | 960 hPa | - | - | - | - |
| 1777975581 | 17.78° C | 65% | 960 hPa | - | - | - | - |
| 1777974978 | 17.22° C | 66% | 959.7 hPa | - | - | - | - |
* Rain since midnight (hover to see other rain measurements)
** Current wind speed in m/s (hover to see current wind gust speed)